GW6164 Weather Reports


time (UTC)temp
F
wind
direction
speed
knots
gust
knots
rain 1hr
in
rain 24hr
in
rain mn
in
humidity
%
barometer
mb
20260504151147 63 212 2.6 12.2 0.00 0.00 0.00 46 1004.0
20260504150145 62 229 4.3 10.4 0.00 0.00 0.00 47 1004.1
20260504141143 60 194 2.6 12.2 0.00 0.00 0.00 49 1004.2
20260504140642 60 159 3.5 12.2 0.00 0.00 0.00 47 1003.7
20260504140141 60 270 3.5 12.2 0.00 0.00 0.00 48 1003.8
20260504130639 57 286 1.7 6.1 0.00 0.00 0.00 54 1004.5
20260504130139 56 14 2.6 8.7 0.00 0.00 0.00 57 1004.5
20260504120136 50 132 0.9 7.0 0.00 0.00 0.00 70 1004.8
20260504110633 39 155 0.0 1.7 0.00 0.00 0.00 94 1005.0
20260504110134 39 127 0.0 0.9 0.00 0.00 0.00 95 1005.0
20260504100125 40 157 0.0 0.9 0.00 0.00 0.00 93 1004.7
20260504090117 42 222 0.9 2.6 0.00 0.00 0.00 92 1004.7
20260504081846 42 220 0.9 1.7 0.00 0.00 0.00 90 1004.6
20260504081113 42 201 0.9 1.7 0.00 0.00 0.00 91 1004.6
20260504080614 42 146 0.0 1.7 0.00 0.00 0.00 92 1004.6
20260504080111 42 160 0.0 1.7 0.00 0.00 0.00 91 1004.7
20260504070111 42 170 0.0 1.7 0.00 0.00 0.00 92 1004.5
20260504050552 39 148 0.0 1.7 0.00 0.00 0.00 83 1005.1
20260504045821 38 141 0.0 0.9 0.00 0.00 0.00 82 1005.0
20260504045050 38 113 0.0 0.9 0.00 0.00 0.00 83 1005.1
20260504044550 38 179 0.0 0.9 0.00 0.00 0.00 83 1005.1
20260504044050 38 206 0.0 0.9 0.00 0.00 0.00 83 1005.2
20260504043548 38 207 0.0 0.9 0.00 0.00 0.00 83 1005.2
20260504043046 37 207 0.0 0.9 0.00 0.00 0.00 82 1005.2
20260504042547 37 207 0.0 0.9 0.00 0.00 0.00 82 1005.2
20260504042044 37 207 0.0 0.9 0.00 0.00 0.00 83 1005.3
20260504041545 37 213 0.0 0.9 0.00 0.00 0.00 82 1005.2
20260504041044 36 208 0.0 0.9 0.00 0.00 0.00 82 1005.2
20260504040550 36 219 0.0 0.9 0.00 0.00 0.00 82 1005.2
20260504040046 36 144 0.0 0.9 0.00 0.00 0.00 82 1005.2
20260504035815 35 156 0.0 0.9 0.00 0.00 0.00 82 1005.3
20260504035044 35 146 0.0 0.9 0.00 0.00 0.00 82 1005.3
20260504034544 35 186 0.0 0.9 0.00 0.00 0.00 81 1005.1
20260504034044 35 158 0.0 0.9 0.00 0.00 0.00 81 1005.2
20260504033813 35 158 0.0 0.9 0.00 0.00 0.00 80 1005.2
20260504033042 35 206 0.9 1.7 0.00 0.00 0.00 81 1005.3
20260504032543 35 213 0.9 1.7 0.00 0.00 0.00 81 1005.2
20260504032042 34 163 0.0 1.7 0.00 0.00 0.00 81 1005.3
20260504031543 34 158 0.0 1.7 0.00 0.00 0.00 81 1005.2
20260504031042 34 168 0.0 1.7 0.00 0.00 0.00 82 1005.2
20260504030548 33 169 0.0 0.9 0.00 0.00 0.00 83 1005.2
20260504030542 33 172 0.0 0.9 0.00 0.00 0.00 83 1005.2
20260504025542 33 215 0.0 0.9 0.00 0.00 0.00 84 1005.4
20260504025042 33 207 0.0 0.9 0.00 0.00 0.00 84 1005.5
20260504024542 33 164 0.0 0.9 0.00 0.00 0.00 84 1005.4
20260504024042 33 206 0.0 0.9 0.00 0.00 0.00 84 1005.5
20260504023542 33 158 0.0 0.9 0.00 0.00 0.00 83 1005.4
20260504023043 33 163 0.0 1.7 0.00 0.00 0.00 83 1005.5
20260504022542 33 155 0.9 1.7 0.00 0.00 0.00 82 1005.6
20260504022040 33 170 0.0 1.7 0.00 0.00 0.00 82 1005.5
20260504021540 33 196 0.0 1.7 0.00 0.00 0.00 82 1005.5
20260504021040 33 199 0.0 1.7 0.00 0.00 0.00 82 1005.5
20260504020539 33 145 0.0 0.9 0.00 0.00 0.00 81 1005.5
20260504020038 34 197 0.0 1.7 0.00 0.00 0.00 81 1005.4
20260504015538 34 149 0.0 1.7 0.00 0.00 0.00 81 1005.5
20260504015038 34 154 0.0 0.9 0.00 0.00 0.00 80 1005.4
20260504014538 34 196 0.0 0.9 0.00 0.00 0.00 80 1005.3
20260504014038 35 191 0.0 0.9 0.00 0.00 0.00 79 1005.3
20260504013538 35 161 0.0 0.9 0.00 0.00 0.00 78 1005.2
20260504013038 35 201 0.0 1.7 0.00 0.00 0.00 78 1005.3
20260504012538 35 165 0.0 1.7 0.00 0.00 0.00 78 1005.2
20260504012308 35 153 0.0 0.0 0.00 0.00 0.00 77 1005.2
20260504011536 36 170 0.0 0.9 0.00 0.00 0.00 76 1005.2
20260504011037 36 156 0.0 0.9 0.00 0.00 0.00 76 1005.1
20260504010806 37 201 0.9 2.6 0.00 0.00 0.00 75 1004.9
20260504010036 37 200 0.9 2.6 0.00 0.00 0.00 75 1004.9
20260504005536 37 168 0.0 0.9 0.00 0.00 0.00 74 1004.8
20260504005036 37 207 0.0 0.9 0.00 0.00 0.00 74 1004.7
20260504004536 37 163 0.0 0.0 0.00 0.00 0.00 74 1004.7
20260504004036 38 154 0.0 0.0 0.00 0.00 0.00 74 1004.6
20260504003536 38 154 0.0 0.0 0.00 0.00 0.00 73 1004.6
20260504003036 38 154 0.0 0.0 0.00 0.00 0.00 72 1004.6
20260504002534 38 154 0.0 0.0 0.00 0.00 0.00 72 1004.5
20260504002034 39 154 0.0 0.0 0.00 0.00 0.00 72 1004.5
20260504001534 39 154 0.0 0.0 0.00 0.00 0.00 71 1004.3
20260504001034 40 154 0.0 0.0 0.00 0.00 0.00 70 1004.1
20260504000534 40 154 0.0 0.0 0.00 0.00 0.00 69 1004.0
20260504000035 41 154 0.0 0.0 0.00 0.00 0.00 68 1004.0
20260503235534 41 154 0.0 0.0 0.00 0.00 0.00 66 1003.9
20260503235033 42 154 0.0 0.0 0.00 0.00 0.00 64 1004.0
20260503234534 42 165 0.0 0.9 0.00 0.00 0.00 64 1003.9
20260503234304 43 266 0.0 0.9 0.00 0.00 0.00 61 1003.9
20260503233532 44 236 0.0 0.9 0.00 0.00 0.00 62 1003.8
20260503233032 45 226 0.0 1.7 0.00 0.00 0.00 58 1003.7
20260503232532 46 215 0.9 2.6 0.00 0.00 0.00 54 1003.7
20260503232032 46 217 0.9 2.6 0.00 0.00 0.00 49 1003.7
20260503231532 47 143 0.9 6.1 0.00 0.00 0.00 48 1003.7
20260503231032 48 325 1.7 7.0 0.00 0.00 0.00 46 1003.6
20260503230532 48 203 0.9 7.0 0.00 0.00 0.00 47 1003.7
20260503230032 48 108 1.7 10.4 0.00 0.00 0.00 47 1003.7
20260503225532 48 247 2.6 10.4 0.00 0.00 0.00 46 1003.7
20260503225037 48 101 1.7 10.4 0.00 0.00 0.00 46 1003.6
20260503225032 48 119 1.7 6.1 0.00 0.00 0.00 46 1003.7
20260503224032 48 28 0.9 10.4 0.00 0.00 0.00 47 1003.7
20260503223802 48 336 0.9 5.2 0.00 0.00 0.00 47 1003.6
20260503223303 48 23 0.9 5.2 0.00 0.00 0.00 48 1003.6
20260503222534 48 276 1.7 6.1 0.00 0.00 0.00 48 1003.7
20260503222033 49 343 1.7 6.1 0.00 0.00 0.00 47 1003.7
20260503221533 49 27 1.7 5.2 0.00 0.00 0.00 47 1003.7
20260503221029 49 26 1.7 4.3 0.00 0.00 0.00 47 1003.7
20260503220530 49 287 2.6 6.1 0.00 0.00 0.00 47 1003.7
20260503220029 49 10 2.6 7.0 0.00 0.00 0.00 46 1003.6
20260503215530 49 191 2.6 9.6 0.00 0.00 0.00 47 1003.6
20260503215028 49 60 3.5 9.6 0.00 0.00 0.00 47 1003.7
20260503214528 49 8 2.6 9.6 0.00 0.00 0.00 49 1003.6
20260503214027 48 168 1.7 9.6 0.00 0.00 0.00 48 1003.6
20260503213528 48 33 0.9 2.6 0.00 0.00 0.00 50 1003.6
20260503213027 48 23 0.9 5.2 0.00 0.00 0.00 49 1003.6
20260503212528 48 128 2.6 7.8 0.00 0.00 0.00 48 1003.6
20260503212259 48 55 3.5 11.3 0.00 0.00 0.00 49 1003.5
20260503211528 48 15 4.3 11.3 0.00 0.00 0.00 48 1003.6
20260503211027 48 51 4.3 11.3 0.00 0.00 0.00 48 1003.5
20260503210528 49 336 3.5 7.8 0.00 0.00 0.00 47 1003.6
20260503210027 49 144 2.6 9.6 0.00 0.00 0.00 47 1003.5
20260503205528 49 217 2.6 9.6 0.00 0.00 0.00 48 1003.4
20260503205028 49 291 2.6 6.1 0.00 0.00 0.00 51 1003.6
20260503204525 49 331 3.5 9.6 0.00 0.00 0.00 50 1003.5
20260503204026 48 59 4.3 15.6 0.00 0.00 0.00 48 1003.5
20260503203526 48 58 4.3 15.6 0.00 0.00 0.00 49 1003.5
20260503203026 48 73 3.5 12.2 0.00 0.00 0.00 48 1003.6
20260503202525 48 21 3.5 12.2 0.00 0.00 0.00 50 1003.4
20260503202026 48 117 4.3 12.2 0.00 0.00 0.00 49 1003.4
20260503201526 48 196 5.2 12.2 0.00 0.00 0.00 48 1003.4
20260503201025 49 359 4.3 10.4 0.00 0.00 0.00 48 1003.4
20260503200523 48 67 2.6 7.8 0.00 0.00 0.00 50 1003.4
20260503200024 47 172 2.6 8.7 0.00 0.00 0.00 49 1003.7
20260503195524 47 279 1.7 8.7 0.00 0.00 0.00 50 1003.7
20260503195023 47 334 3.5 9.6 0.00 0.00 0.00 50 1003.7
20260503194524 47 241 4.3 11.3 0.00 0.00 0.00 49 1003.6
20260503194253 47 332 3.5 11.3 0.00 0.00 0.00 50 1003.8
20260503193522 47 291 3.5 9.6 0.00 0.00 0.00 50 1003.7
20260503193021 47 75 4.3 16.5 0.00 0.00 0.00 50 1003.8
20260503192520 47 109 5.2 16.5 0.00 0.00 0.00 51 1004.0
20260503192019 47 93 5.2 12.2 0.00 0.00 0.00 49 1004.0
20260503191751 47 324 4.3 11.3 0.00 0.00 0.00 48 1004.1
20260503191019 48 39 4.3 11.3 0.00 0.00 0.00 48 1003.9
20260503190520 48 186 4.3 13.9 0.00 0.00 0.00 47 1004.0
20260503190019 48 122 3.5 13.9 0.00 0.00 0.00 49 1004.0
20260503185751 48 322 4.3 13.0 0.00 0.00 0.00 50 1003.9
20260503185020 47 264 4.3 13.0 0.00 0.00 0.00 48 1003.8
20260503184519 48 61 2.6 12.2 0.00 0.00 0.00 48 1003.9
20260503184019 48 101 3.5 11.3 0.00 0.00 0.00 48 1003.8
20260503183520 48 267 4.3 11.3 0.00 0.00 0.00 48 1003.8
20260503183019 48 50 4.3 13.0 0.00 0.00 0.00 48 1003.9
20260503182520 49 128 4.3 15.6 0.00 0.00 0.00 47 1003.8
20260503182019 49 328 5.2 15.6 0.00 0.00 0.00 48 1003.6
20260503181520 48 349 4.3 13.9 0.00 0.00 0.00 50 1003.8
20260503181019 47 288 4.3 13.9 0.00 0.00 0.00 50 1003.9
20260503180520 47 279 5.2 13.9 0.00 0.00 0.00 51 1003.8
20260503180019 46 0 4.3 13.0 0.00 0.00 0.00 51 1004.0
20260503175520 46 100 5.2 11.3 0.00 0.00 0.00 51 1004.1
20260503175019 47 291 5.2 11.3 0.00 0.00 0.00 52 1003.9
20260503174520 47 143 4.3 11.3 0.00 0.00 0.00 51 1003.8
20260503174249 47 0 3.5 10.4 0.00 0.00 0.00 52 1003.8
20260503173518 47 168 4.3 10.4 0.00 0.00 0.00 52 1003.8
20260503173017 47 144 5.2 13.0 0.00 0.00 0.00 53 1003.8
20260503172746 47 45 5.2 14.8 0.00 0.00 0.00 52 1003.8
20260503172013 47 83 5.2 14.8 0.00 0.00 0.00 51 1003.9
20260503171514 47 35 6.1 19.1 0.00 0.00 0.00 52 1003.8
20260503171013 48 272 7.0 22.6 0.00 0.00 0.00 51 1003.9
20260503170514 48 7 5.2 22.6 0.00 0.00 0.00 51 1003.9